Weather History for Winder, GA

Change the Weather History Date:

Saturday, January 18, 2014

  Actual Average Record
Temperature  
Mean Temperature 35 °F -  
Max Temperature 42 °F 53 °F 70 °F (1974)
Min Temperature 28 °F 31 °F 9 °F (1976)
Degree Days  
Heating Degree Days 30    
Moisture  
Dew Point -3 °F    
Average Humidity 24    
Maximum Humidity 48    
Minimum Humidity 4    
Precipitation  
Precipitation 0.00 in - - ()
Sea Level Pressure  
Sea Level Pressure 30.11 in    
Wind  
Wind Speed 9 mph (West)    
Max Wind Speed 14 mph    
Max Gust Speed 22 mph    
Visibility 10 miles    
Events      
Averages and records for this station are not official NWS values.
T = Trace of Precipitation, MM = Missing Value Source: NWS Daily Summary

Daily Weather History Graph

Daily Weather History Graph

Search for Another Location

Airport:

Trip Planner

Search our weather history database for the weather conditions in past years. The results will help you decide how hot, cold, wet, or windy it might be!

Date:

Astronomy

Jan. 18, 2014 Rise Set
Actual Time 7:39 AM EST 5:51 PM EST
Civil Twilight 7:12 AM EST 6:18 PM EST
Nautical Twilight 6:41 AM EST 6:49 PM EST
Astronomical Twilight 6:11 AM EST 7:19 PM EST
Moon 8:23 PM EST (1/18) 8:46 AM EST (1/18)
Length of Visible Light 11h 06m
Length of Day
10h 12m
Waning Gibbous, 94% of the Moon is Illuminated
Jan 18
Waning Gibbous
Jan 24
Last Quarter
Jan 30
New
Feb 6
First Quarter
Feb 14
Full

Hourly Weather History & Observations

Time (EST) Temp. Windchill Dew Point Humidity Pressure Visibility Wind Dir Wind Speed Gust Speed Precip Events Conditions
12:15 AM 32.0 °F 24.8 °F 5.0 °F 32% 30.09 in 10.0 mi WNW 8.1 mph - N/A   Unknown
12:35 AM 32.0 °F 22.1 °F 3.2 °F 30% 30.08 in 10.0 mi NW 13.8 mph 17.3 mph N/A   Unknown
12:55 AM 32.0 °F 23.6 °F 3.2 °F 30% 30.08 in 10.0 mi WNW 10.4 mph - N/A   Unknown
1:15 AM 32.0 °F 23.0 °F 3.2 °F 30% 30.08 in 10.0 mi WNW 11.5 mph - N/A   Unknown
1:35 AM 32.0 °F 24.2 °F 3.2 °F 30% 30.08 in 10.0 mi WNW 9.2 mph - N/A   Unknown
1:55 AM 30.2 °F 21.3 °F 3.2 °F 32% 30.08 in 10.0 mi WNW 10.4 mph - N/A   Unknown
2:15 AM 30.2 °F 19.8 °F 3.2 °F 32% 30.08 in 10.0 mi WNW 13.8 mph 21.9 mph N/A   Unknown
2:35 AM 30.2 °F 23.4 °F 3.2 °F 32% 30.09 in 10.0 mi West 6.9 mph - N/A   Unknown
2:55 AM 30.2 °F 22.6 °F 5.0 °F 34% 30.09 in 10.0 mi WNW 8.1 mph - N/A   Unknown
3:15 AM 30.2 °F 22.6 °F 3.2 °F 32% 30.09 in 10.0 mi WNW 8.1 mph - N/A   Unknown
3:35 AM 30.2 °F 20.8 °F 3.2 °F 32% 30.10 in 10.0 mi WNW 11.5 mph - N/A   Unknown
3:55 AM 30.2 °F 21.9 °F 3.2 °F 32% 30.10 in 10.0 mi WNW 9.2 mph - N/A   Unknown
4:15 AM 30.2 °F 20.8 °F 3.2 °F 32% 30.09 in 10.0 mi WNW 11.5 mph - N/A   Unknown
4:35 AM 30.2 °F 19.8 °F 3.2 °F 32% 30.10 in 10.0 mi NW 13.8 mph 18.4 mph N/A   Unknown
4:55 AM 30.2 °F 20.2 °F 3.2 °F 32% 30.10 in 10.0 mi WNW 12.7 mph 18.4 mph N/A   Unknown
5:15 AM 30.2 °F 20.2 °F 3.2 °F 32% 30.10 in 10.0 mi WNW 12.7 mph 19.6 mph N/A   Unknown
5:35 AM 30.2 °F 20.8 °F 3.2 °F 32% 30.11 in 10.0 mi West 11.5 mph - N/A   Unknown
5:55 AM 28.4 °F 20.4 °F 3.2 °F 34% 30.12 in 10.0 mi West 8.1 mph - N/A   Unknown
6:15 AM 28.4 °F 18.0 °F 3.2 °F 34% 30.12 in 10.0 mi WNW 12.7 mph 17.3 mph N/A   Unknown
6:35 AM 28.4 °F 19.1 °F 3.2 °F 34% 30.13 in 10.0 mi WNW 10.4 mph 19.6 mph N/A   Unknown
6:55 AM 28.4 °F 19.1 °F 5.0 °F 37% 30.13 in 10.0 mi WNW 10.4 mph - N/A   Unknown
7:15 AM 28.4 °F 19.1 °F 5.0 °F 37% 30.14 in 10.0 mi WNW 10.4 mph 17.3 mph N/A   Unknown
7:35 AM 28.4 °F 19.7 °F 5.0 °F 37% 30.13 in 10.0 mi WNW 9.2 mph 17.3 mph N/A   Unknown
7:55 AM 28.4 °F 19.1 °F 5.0 °F 37% 30.15 in 10.0 mi West 10.4 mph - N/A   Unknown
8:15 AM 28.4 °F 20.4 °F 5.0 °F 37% 30.15 in 10.0 mi WNW 8.1 mph - N/A   Unknown
8:35 AM 28.4 °F 19.1 °F 5.0 °F 37% 30.16 in 10.0 mi West 10.4 mph - N/A   Unknown
8:55 AM 30.2 °F 21.9 °F 5.0 °F 34% 30.17 in 10.0 mi West 9.2 mph - N/A   Unknown
9:15 AM 30.2 °F 22.6 °F 3.2 °F 32% 30.18 in 10.0 mi West 8.1 mph - N/A   Unknown
9:35 AM 32.0 °F 23.0 °F 3.2 °F 30% 30.19 in 10.0 mi WNW 11.5 mph - N/A   Unknown
9:55 AM 32.0 °F 22.5 °F 1.4 °F 27% 30.20 in 10.0 mi WNW 12.7 mph 17.3 mph N/A   Unknown
10:15 AM 32.0 °F 22.5 °F 1.4 °F 27% 30.21 in 10.0 mi NW 12.7 mph 16.1 mph N/A   Unknown
10:35 AM 32.0 °F 24.2 °F -0.4 °F 25% 30.21 in 10.0 mi WNW 9.2 mph - N/A   Unknown
10:55 AM 32.0 °F 24.8 °F -0.4 °F 25% 30.22 in 10.0 mi NW 8.1 mph 20.7 mph N/A   Unknown
11:15 AM 33.8 °F 25.3 °F -0.4 °F 23% 30.21 in 10.0 mi WNW 11.5 mph - N/A   Unknown
11:35 AM 33.8 °F 25.8 °F -4.0 °F 20% 30.21 in 10.0 mi WNW 10.4 mph 20.7 mph N/A   Unknown
11:55 AM 35.6 °F 28.0 °F -4.0 °F 18% 30.20 in 10.0 mi WNW 10.4 mph - N/A   Unknown
12:15 PM 35.6 °F 27.1 °F -4.0 °F 18% 30.19 in 10.0 mi WNW 12.7 mph - N/A   Unknown
12:35 PM 37.4 °F 29.3 °F -5.8 °F 16% 30.17 in 10.0 mi WNW 12.7 mph 16.1 mph N/A   Unknown
12:55 PM 37.4 °F 32.1 °F -5.8 °F 16% 30.16 in 10.0 mi West 6.9 mph 17.3 mph N/A   Unknown
1:15 PM 37.4 °F 32.1 °F -7.6 °F 15% 30.15 in 10.0 mi WNW 6.9 mph - N/A   Unknown
1:35 PM 39.2 °F 33.0 °F -7.6 °F 14% 30.15 in 10.0 mi West 9.2 mph 17.3 mph N/A   Unknown
1:55 PM 39.2 °F 33.0 °F -9.4 °F 12% 30.13 in 10.0 mi West 9.2 mph 16.1 mph N/A   Unknown
2:15 PM 41.0 °F 35.8 °F -13.0 °F 10% 30.11 in 10.0 mi WSW 8.1 mph - N/A   Unknown
2:35 PM 41.0 °F 33.5 °F -13.0 °F 10% 30.12 in 10.0 mi West 13.8 mph 18.4 mph N/A   Unknown
2:55 PM 41.0 °F 38.0 °F -16.6 °F 8% 30.11 in 10.0 mi West 4.6 mph - N/A   Clear
3:15 PM 41.0 °F 34.7 °F -20.2 °F 7% 30.11 in 10.0 mi WSW 10.4 mph - N/A   Clear
3:35 PM 42.8 °F 37.0 °F -22.0 °F 6% 30.10 in 10.0 mi SW 10.4 mph - N/A   Clear
3:55 PM 42.8 °F 38.0 °F -22.0 °F 6% 30.10 in 10.0 mi West 8.1 mph - N/A   Clear
4:15 PM 42.8 °F 38.6 °F -25.6 °F 5% 30.10 in 10.0 mi SW 6.9 mph - N/A   Clear
4:35 PM 42.8 °F 39.3 °F -23.8 °F 5% 30.09 in 10.0 mi WSW 5.8 mph - N/A   Scattered Clouds
4:55 PM 42.8 °F 41.1 °F -27.4 °F 4% 30.09 in 10.0 mi SSW 3.5 mph - N/A   Scattered Clouds
5:15 PM 42.8 °F 38.6 °F -25.6 °F 5% 30.09 in 10.0 mi SW 6.9 mph - N/A   Scattered Clouds
5:35 PM 41.0 °F 36.4 °F -23.8 °F 6% 30.07 in 10.0 mi SW 6.9 mph - N/A   Unknown
5:55 PM 41.0 °F - -16.6 °F 8% 30.06 in 10.0 mi Calm Calm - N/A   Unknown
6:15 PM 37.4 °F 34.9 °F -9.4 °F 13% 30.07 in 10.0 mi SSW 3.5 mph - N/A   Unknown
6:35 PM 37.4 °F 34.9 °F -9.4 °F 13% 30.06 in 10.0 mi SSW 3.5 mph - N/A   Unknown
6:55 PM 37.4 °F 32.8 °F -9.4 °F 13% 30.08 in 10.0 mi SW 5.8 mph - N/A   Unknown
7:15 PM 37.4 °F 33.8 °F -9.4 °F 13% 30.07 in 10.0 mi SSW 4.6 mph - N/A   Unknown
7:35 PM 37.4 °F 32.8 °F -7.6 °F 15% 30.06 in 10.0 mi SSW 5.8 mph - N/A   Unknown
7:55 PM 35.6 °F 29.9 °F -4.0 °F 18% 30.05 in 10.0 mi South 6.9 mph - N/A   Unknown
8:15 PM 35.6 °F 30.7 °F -7.6 °F 16% 30.05 in 10.0 mi SSW 5.8 mph - N/A   Unknown
8:35 PM 35.6 °F 30.7 °F -5.8 °F 17% 30.05 in 10.0 mi SSW 5.8 mph - N/A   Unknown
8:55 PM 33.8 °F 30.8 °F -0.4 °F 23% 30.04 in 10.0 mi South 3.5 mph - N/A   Unknown
9:15 PM 33.8 °F 28.6 °F -4.0 °F 20% 30.04 in 10.0 mi SSW 5.8 mph - N/A   Unknown
9:35 PM 33.8 °F - -4.0 °F 20% 30.05 in 10.0 mi Calm Calm - N/A   Unknown
9:55 PM 33.8 °F 30.8 °F -4.0 °F 20% 30.05 in 10.0 mi SW 3.5 mph - N/A   Unknown
10:15 PM 32.0 °F 28.7 °F 8.6 °F 38% 30.05 in 10.0 mi SW 3.5 mph - N/A   Unknown
10:35 PM 30.2 °F 25.4 °F 12.2 °F 47% 30.05 in 10.0 mi SW 4.6 mph - N/A   Unknown
10:55 PM 32.0 °F 27.5 °F 6.8 °F 35% 30.04 in 10.0 mi SW 4.6 mph - N/A   Unknown
11:15 PM 32.0 °F 28.7 °F 6.8 °F 35% 30.04 in 10.0 mi SW 3.5 mph - N/A   Unknown
11:35 PM 32.0 °F 28.7 °F 8.6 °F 38% 30.03 in 10.0 mi SW 3.5 mph - N/A   Unknown
11:55 PM 32.0 °F 28.7 °F 14.0 °F 48% 30.03 in 10.0 mi SSW 3.5 mph - N/A   Unknown